Station: Macquarie Island  

  Atmospheric Gas Attenuation - ITU Rec 676-11   ----------------- dB/100km -----------------
Date Time Temp RH % AH g/m3 Dew Point Wind Direction Speed kph Gust kph Barometer mB Rainfall Since 9am 24GHz 47GHz 76GHz 122GHz 134GHz 241GHz
05/09 15:40 2.1 73 4.09 -2.2 46 59 986.6 0.2 10.3 20.8 25.8 67.4 49.4 165.4
05/09 15:30 1.8 76 4.17 -2 48 76 986.4 0.2 10.5 21.0 26.2 68.5 50.6 169.6
05/09 15:20 2.1 74 4.14 -2 44 69 986.3 0.2 10.4 20.9 26.0 67.9 50.0 167.6
05/09 15:10 2.1 76 4.26 -1.7 44 69 986.1 0.2 10.7 21.1 26.4 69.1 51.5 172.9
05/09 15:00 1.8 75 4.12 -2.1 43 70 986 0.2 10.4 20.9 26.0 67.9 49.9 167.3
05/09 14:50 2.1 74 4.14 -2 44 69 985.7 0.2 10.4 20.9 26.0 67.9 50.0 167.5
05/09 14:40 2.6 70 4.06 -2.3 48 67 985.6 0.2 10.2 20.6 25.5 66.6 48.7 162.9
05/09 14:30 2.3 71 4.03 -2.4 46 67 985.3 0.2 10.2 20.6 25.5 66.5 48.5 162.2
05/09 14:20 2.4 70 4 -2.5 48 74 985.1 0.2 10.1 20.6 25.3 66.1 48.0 160.6
05/09 14:10 2.5 70 4.03 -2.4 46 65 985.1 0.2 10.2 20.6 25.4 66.3 48.3 161.8
05/09 14:00 2.6 73 4.23 -1.7 44 67 984.8 0.2 10.6 20.9 26.1 68.3 50.7 170.3
05/09 13:50 2.3 71 4.03 -2.4 44 69 984.7 0.2 10.2 20.6 25.5 66.5 48.4 162.1
05/09 13:40 2.5 70 4.03 -2.4 50 69 984.6 0.2 10.2 20.6 25.4 66.3 48.3 161.7
05/09 13:30 2.6 70 4.06 -2.3 52 78 984.4 0.2 10.2 20.6 25.5 66.5 48.6 162.8
05/09 13:20 2.2 72 4.06 -2.3 52 72 984 0.2 10.3 20.7 25.6 66.8 48.8 163.5
05/09 13:10 2.4 71 4.06 -2.3 52 69 983.9 0.2 10.3 20.6 25.5 66.6 48.7 163.1
05/09 13:00 2.4 67 3.83 -3.1 54 83 983.9 0.2 9.8 20.3 24.6 64.3 45.9 153.1
05/09 12:50 2.6 72 4.17 -1.9 48 74 983.2 0.2 10.5 20.7 25.8 67.5 49.9 167.4
05/09 12:40 2.5 70 4.03 -2.4 54 76 983.2 0.2 10.2 20.5 25.3 66.2 48.2 161.5
05/09 12:30 2.2 72 4.06 -2.3 52 78 983.3 0.2 10.3 20.6 25.6 66.8 48.8 163.4
05/09 12:20 2.4 71 4.06 -2.3 54 72 983.2 0.2 10.3 20.6 25.5 66.6 48.7 163.0
05/09 12:10 2.7 69 4.02 -2.4 52 76 982.8 0.2 10.2 20.4 25.2 65.9 48.0 160.6
05/09 12:00 2.6 68 3.94 -2.7 52 76 982.7 0.2 10.0 20.3 25.0 65.2 47.0 157.3
05/09 11:50 2.7 72 4.2 -1.8 52 82 982.4 0.2 10.5 20.7 25.9 67.7 50.2 168.4
05/09 11:40 2.6 72 4.17 -1.9 56 74 982.4 0.2 10.5 20.7 25.8 67.5 49.9 167.3
05/09 11:30 2.9 73 4.32 -1.5 52 74 982 0.2 10.8 20.8 26.3 68.7 51.5 173.2
05/09 11:20 3.1 74 4.43 -1.1 50 72 981.7 0.2 11.0 20.9 26.6 69.6 52.8 177.5
05/09 11:10 3 77 4.58 -0.6 48 78 981.5 0.2 11.4 21.2 27.2 71.2 54.7 184.4
05/09 11:00 3.1 75 4.49 -0.9 50 70 981.4 0.2 11.2 21.0 26.8 70.2 53.5 180.1
05/09 10:50 2.9 76 4.49 -0.9 54 70 981.1 0.2 11.2 21.1 26.9 70.3 53.6 180.5
05/09 10:40 2.9 78 4.61 -0.5 50 69 980.9 0.2 11.4 21.2 27.3 71.5 55.1 185.8
05/09 10:30 2.7 75 4.37 -1.3 50 70 980.9 0.2 10.9 20.9 26.5 69.3 52.2 175.6
05/09 10:20 2.5 82 4.72 -0.3 50 67 980.5 0.2 11.7 21.5 27.9 73.0 56.8 191.6
05/09 10:10 2.2 89 5.02 0.6 50 59 980.5 0.2 12.3 22.0 29.2 76.4 60.9 206.0
05/09 10:00 1.8 88 4.83 0 46 69 980.4 0.2 11.9 21.8 28.5 74.8 58.7 198.3
05/09 09:50 2.5 81 4.66 -0.4 43 76 980.4 0 11.5 21.4 27.6 72.4 56.0 188.9
05/09 09:40 3.4 84 5.14 1 39 50 980 0 12.6 21.9 29.2 76.5 61.5 208.2
05/09 09:30 3.1 82 4.91 0.3 41 52 979.8 0 12.1 21.6 28.4 74.4 58.8 198.6
05/09 09:20 2.9 82 4.85 0.1 46 56 979.7 0 11.9 21.6 28.2 73.9 58.1 196.4
05/09 09:10 2.7 77 4.49 -0.9 44 61 979.6 0 11.2 21.0 26.9 70.4 53.7 180.7
05/09 09:00 3.1 70 4.19 -1.8 43 56 979.3 0 10.5 20.5 25.6 67.0 49.7 166.6
05/09 08:50 3.2 71 4.28 -1.5 44 57 979 2.8 10.7 20.6 25.9 67.8 50.7 170.3
05/09 08:40 2.8 71 4.17 -1.9 46 72 978.8 2.8 10.5 20.5 25.6 67.0 49.6 166.3
05/09 08:30 2.7 73 4.26 -1.6 46 59 978.9 2.8 10.7 20.7 26.0 68.0 50.8 170.5
05/09 08:20 2.7 76 4.43 -1.1 46 57 978.6 2.8 11.0 20.9 26.6 69.7 52.9 177.9
05/09 08:10 1.9 85 4.7 -0.3 43 56 978.7 2.8 11.7 21.5 27.9 73.2 56.9 191.9
05/09 08:00 1.7 89 4.85 0.1 43 61 978.4 2.8 12.0 21.8 28.6 74.9 59.0 199.2
05/09 07:50 2.3 87 4.94 0.4 41 48 978.3 2.6 12.2 21.8 28.7 75.3 59.7 201.7
05/09 07:40 1.9 87 4.81 0 43 48 978 2.6 11.9 21.7 28.3 74.3 58.3 196.8
05/09 07:30 1.1 87 4.55 -0.8 50 69 978.2 2.6 11.3 21.5 27.6 72.3 55.5 186.9
05/09 07:20 2.1 78 4.37 -1.3 44 72 978.2 2 10.9 21.0 26.6 69.6 52.5 176.5
05/09 07:10 2.6 78 4.52 -0.8 43 54 977.6 2 11.2 21.0 27.0 70.6 54.0 182.0
05/09 07:00 2.4 81 4.63 -0.5 46 56 977.6 2 11.5 21.3 27.4 71.9 55.6 187.3
05/09 06:50 2.2 81 4.57 -0.7 46 57 977.4 2 11.4 21.2 27.3 71.5 54.9 185.1
05/09 06:40 1.7 87 4.74 -0.2 39 52 977.3 2 11.7 21.6 28.1 73.7 57.5 193.9
05/09 06:30 1 86 4.47 -1.1 46 65 977.4 2 11.2 21.3 27.3 71.5 54.5 183.4
05/09 06:20 2.2 84 4.74 -0.2 41 52 976.7 1.8 11.7 21.5 27.9 73.2 57.1 192.6
05/09 06:10 1.9 85 4.7 -0.3 41 54 976.7 1.8 11.6 21.5 27.9 73.0 56.8 191.5
05/09 06:00 2 85 4.73 -0.2 41 50 976.5 1.8 11.7 21.5 27.9 73.2 57.1 192.6
05/09 05:50 1.9 82 4.53 -0.8 46 69 976.5 1.8 11.3 21.2 27.2 71.2 54.6 183.9
05/09 05:40 2.2 81 4.57 -0.7 48 65 976.6 1.8 11.4 21.2 27.2 71.4 54.9 185.0
05/09 05:30 2.6 69 4 -2.5 46 59 976.2 1.8 10.1 20.2 24.9 65.2 47.5 158.9
05/09 05:20 2.6 73 4.23 -1.7 44 59 976.1 1.8 10.6 20.5 25.8 67.5 50.3 168.9
05/09 05:10 2.3 78 4.43 -1.1 44 57 975.8 1.8 11.0 20.9 26.6 69.8 53.0 178.4
05/09 05:00 2.3 82 4.66 -0.4 41 50 975.8 1.8 11.5 21.3 27.5 72.2 55.9 188.6
05/09 04:50 2.5 81 4.66 -0.4 39 56 975.7 1.8 11.5 21.2 27.5 72.0 55.8 188.1
05/09 04:40 1.8 87 4.77 -0.1 33 46 975.7 1.8 11.8 21.6 28.1 73.8 57.7 194.8
05/09 04:30 1.4 87 4.65 -0.5 39 54 975.8 1.8 11.6 21.5 27.8 72.9 56.5 190.3
05/09 04:20 1.6 87 4.71 -0.3 37 54 975.6 1.8 11.7 21.5 28.0 73.3 57.1 192.5
05/09 04:10 1.7 87 4.74 -0.2 37 50 975.7 1.8 11.7 21.5 28.0 73.5 57.4 193.7
05/09 04:00 2 85 4.73 -0.2 33 48 975.3 1.6 11.7 21.4 27.9 73.1 57.0 192.4
05/09 03:50 1.8 86 4.72 -0.3 35 52 975.3 1.6 11.7 21.5 27.9 73.2 57.0 192.4
05/09 03:40 2.1 85 4.76 -0.2 35 46 975.2 1.6 11.8 21.5 28.0 73.3 57.3 193.5
05/09 03:30 2.3 84 4.77 -0.1 37 54 975.1 1.6 11.8 21.4 27.9 73.2 57.3 193.4
05/09 03:20 2.5 84 4.83 0.1 32 39 974.7 1.4 11.9 21.4 28.1 73.6 57.9 195.6
05/09 03:10 2.5 84 4.83 0.1 37 46 974.7 1.4 11.9 21.4 28.1 73.6 57.9 195.6
05/09 03:00 2.5 80 4.6 -0.6 41 48 974.8 1.4 11.4 21.1 27.2 71.3 55.0 185.3
05/09 02:50 2.5 83 4.78 -0.1 41 54 974.6 1.4 11.8 21.4 27.9 73.1 57.3 193.3
05/09 02:40 2.9 83 4.91 0.3 35 43 974.4 1.4 12.1 21.5 28.2 74.1 58.6 198.1
05/09 02:30 2.7 80 4.67 -0.4 37 44 974.5 1.4 11.6 21.1 27.4 71.8 55.7 187.9
05/09 02:20 2.4 81 4.63 -0.5 35 43 974.5 1.4 11.5 21.2 27.3 71.6 55.4 186.8
05/09 02:10 2.5 83 4.78 -0.1 33 43 974.6 1.4 11.8 21.4 27.9 73.1 57.3 193.3
05/09 02:00 2.4 83 4.74 -0.2 32 43 974.6 1.4 11.7 21.3 27.8 72.8 56.8 191.8
05/09 01:50 2.6 85 4.92 0.3 30 37 974.4 1.4 12.1 21.6 28.4 74.5 59.0 199.3
05/09 01:40 2.3 86 4.88 0.2 28 35 974.5 1.4 12.0 21.6 28.3 74.3 58.7 198.3
05/09 01:30 2.4 85 4.86 0.1 35 46 974.6 1.4 12.0 21.5 28.2 74.0 58.4 197.2
05/09 01:20 2.7 85 4.96 0.4 30 48 974.5 1.4 12.2 21.6 28.5 74.8 59.4 200.9
05/09 01:10 2.3 83 4.71 -0.3 33 43 974.5 1.4 11.7 21.3 27.7 72.6 56.5 190.6
05/09 01:00 2.1 84 4.7 -0.3 39 46 974.5 1.4 11.6 21.3 27.7 72.6 56.5 190.7
05/09 00:50 2.6 87 5.04 0.7 32 41 974.6 1.4 12.4 21.7 28.9 75.7 60.5 204.8
05/09 00:40 2.3 88 5 0.5 32 39 974.5 1.4 12.3 21.8 28.8 75.6 60.2 203.7
05/09 00:30 2.2 90 5.07 0.7 30 33 974.5 1.4 12.4 21.9 29.1 76.4 61.2 207.2
05/09 00:20 2.1 88 4.93 0.3 41 61 974.6 1.4 12.1 21.7 28.6 75.1 59.5 201.1
05/09 00:10 2.9 85 5.02 0.6 33 43 974.5 1.4 12.3 21.6 28.7 75.2 60.0 203.1
05/09 00:00 2.4 87 4.97 0.5 30 37 974.6 1.4 12.2 21.7 28.7 75.2 59.8 202.1
04/09 23:50 2.4 88 5.03 0.6 35 43 974.5 1.4 12.3 21.8 28.9 75.8 60.5 204.8
04/09 23:40 2.5 88 5.06 0.7 41 50 974.6 1.4 12.4 21.8 29.0 76.0 60.9 206.0
04/09 23:30 2.5 84 4.83 0.1 35 50 974.5 1.4 11.9 21.4 28.1 73.6 57.9 195.5
04/09 23:20 2.3 88 5 0.5 33 43 974.6 1.4 12.3 21.8 28.8 75.6 60.2 203.8
04/09 23:10 2.1 88 4.93 0.3 33 44 974.6 1.4 12.1 21.7 28.6 75.1 59.5 201.1

Last Refresh: 05-Sep-2026 15:22:14

Bureau of Meteorology